* Astronomy

Members Login
Username 
 
Password 
    Remember Me  
Post Info TOPIC: Asteroid 2011 EA17


L

Posts: 131433
Date:
Asteroid 2011 EA17
Permalink  
 


Orbital elements:
2011 EA17
Epoch 2011 Feb. 8.0 TT = JDT 2455600.5 MPC
M 353.34712 (2000.0) P Q
n 0.19981267 Peri. 12.49830 -0.97982909 -0.08629356
a 2.8977041 Node 159.70755 +0.10681137 -0.98846130
e 0.5349708 Incl. 31.31350 +0.16889724 +0.12448967
P 4.93 H 20.9 G 0.15 U 9

MPEC 2011 - E36


__________________
Page 1 of 1  sorted by
 
Quick Reply

Please log in to post quick replies.



Create your own FREE Forum
Report Abuse
Powered by ActiveBoard